SBIRS GEO-4 (USA 273)

Last updated on Thu Jul 03 2025 00:02:47 GMT+0000 (Coordinated Universal Time)

1 41937U 17004A 25183.57266933 -.00000206 00000+0 00000+0 0 9993 2 41937 1.6609 28.6511 0001210 65.7675 127.4861 0.99978768 31096
UTC large
Height (km)
Speed (km/s)
/
Latitude / Longitude
Inclination (degrees)
Orbital Period (minutes)
Azimuth
Elevation
Range (km)
Doppler Factor

Next 0 passes for location: London (51.5072 / 0.1276)

Sorry there are no passes over London.